sat.trackr.live / text

‹ back to catalog

STARLINK-33857

NORAD 64195 · 2025-113AB

PAYLOAD ACTIVE UNKNOWN

§ Identity

Operator
Country
US
Launch date
2025-05-28
Launch site
AFETR
Launch vehicle
Mass (kg)
RCS (m²)

Purposes: comms

External: N2YO · Heavens-Above · Gunter

§ Orbital elements

Epoch: 2026-09-20T05:28:06.116448Z

Period
94.01 min
Inclination
53.1577°
Eccentricity
0.0001579
Mean motion
15.31721310 rev/d
Perigee alt
469.6 km
Apogee alt
471.8 km
Semi-major
6,848.8 km
B*
3.8626e-4
RAAN
266.5359°
Arg perigee
120.7549°
Mean anomaly
239.3608°
Rev number
7,482

§ Raw data

STARLINK-338571 64195U 25113AB  26263.22784857  .00011648  00000+0  38626-3 0  99962 64195  53.1577 266.5359 0001579 120.7549 239.3608 15.31721310 74827

JSON: /api/v1/satellites/64195 · /tle

For live sub-satellite position, see the globe view (requires WebGL).

§ Visibility from observer

Set your observer location to see the next 7 days of passes ≥ 10°. The values pass through the URL so the page stays shareable.

No JS? Fill the form by hand. The geolocation button needs JavaScript.